Regional Weather Roundup
Issued by NWS Cleveland, OH

Home | Current Version | Previous Version | Graphics & Text | Print | Product List | Glossary On
Versions: 1 2 3 4 5 6 7 8 9 10 11 12 13 14 15 16 17 18 19 20 21 22 23 24 25 26 27 28 29 30 31 32 33 34 35 36 37 38 39 40 41 42 43 44 45 46 47 48 49 50
000
ASUS41 KCLE 080400
RWRCLE
OHIO REGIONAL WEATHER ROUNDUP
NATIONAL WEATHER SERVICE WILMINGTON, OH
1100 PM EST WED DEC 07 2016

NOTE: "FAIR" INDICATES FEW OR NO CLOUDS BELOW 12,000 FEET WITH NO
SIGNIFICANT WEATHER AND/OR OBSTRUCTIONS TO VISIBILITY.

OHZ001>008-015>018-024>027-034-035-043-044-080500-
   NORTHWEST OHIO

CITY           SKY/WX    TMP DP  RH WIND       PRES   REMARKS
DEFIANCE       CLOUDY    30  21  69 W13G21    30.10S WCI  20
FINDLAY        FAIR      31  23  72 W15G26    30.09R WCI  20
TOLEDO EXPRESS CLOUDY    30  23  75 W15G23    30.07R WCI  19
TOLEDO EXEC    MOCLDY    30  25  81 W10       30.08R WCI  21
LIMA           MOCLDY    29  25  85 W16       30.10S WCI  17
$$

OHZ009>014-019>023-028>033-038-089-080500-
   NORTHEAST OHIO

CITY           SKY/WX    TMP DP  RH WIND       PRES   REMARKS
CLE-HOPKINS    CLOUDY    34  24  67 W10       30.08R WCI  26
CLE-LAKEFRONT  CLOUDY    35  24  64 W18       30.05R WCI  24
CUY CO. ARPT   MOCLDY    36  27  69 SW14      30.04S
LORAIN-ELYRIA  CLOUDY    32  24  72 W12       30.07R WCI  23
ASHTABULA      FAIR      33  23  66 SW8       30.02F WCI  26
AKRON-CANTON   CLOUDY    33  23  66 W10       30.05R WCI  25
WOOSTER        NOT AVBL
MANSFIELD      CLOUDY    31  23  72 SW13      30.06R WCI  21
YOUNGSTOWN     CLOUDY    33  23  66 SW10      30.02S WCI  25
$$

OHZ042-051>053-060>062-070>072-077>081-080500-
  SOUTHWEST OHIO

CITY           SKY/WX    TMP DP  RH WIND       PRES   REMARKS
CINC-COVINGTON CLOUDY    34  24  67 W10       30.16R WCI  26
CINC-LUNKEN    CLOUDY    36  24  62 W9        30.19R
HAMILTON       CLOUDY    35  25  66 W7        30.18R WCI  29
DAYTON         NOT AVBL
WRIGHT-PAT AFB NOT AVBL
DAYTON GENERAL CLOUDY    33  22  63 W12       30.13S WCI  24
WILMINGTON     CLOUDY    33  24  69 W12       30.13S WCI  24
$$

OHZ036-037-039>041-045>050-054>059-063>069-073>076-082>088-080500-
  CENTRAL AND SOUTHEAST OHIO

CITY           SKY/WX    TMP DP  RH WIND       PRES   REMARKS
COLUMBUS       CLOUDY    34  25  69 W8        30.11F WCI  27
OSU AIRPORT    CLOUDY    33  26  75 W12       30.11S WCI  24
BOLTON FIELD   NOT AVBL
RICKENBACK AFB NOT AVBL
NEWARK         CLOUDY    34  24  67 W9        30.10S WCI  27
MARION         CLOUDY    32  23  69 W13G20    30.10R WCI  22
LANCASTER      CLOUDY    34  25  69 W5        30.12S WCI  30
ZANESVILLE     CLOUDY    34  24  67 W5        30.10S WCI  30
NEW PHILLY     CLOUDY    34  24  67 W5        30.09R WCI  30
$$




USA.gov is the U.S. government's official web portal to all federal, state and local government web resources and services.